GFSSGP_500_spd_021.txt.gz
Wind_Speed
4 6 7 8 7 8 7 7 8 9 8 6 4 5 5 5 5 7 8 6 5 5 3 2 1 0 1 1 2 3 4 6 6 6 7 9 11 12 12 13 12 13 13 12 12 12 16 19 20
10 9 9 10 9 8 9 8 7 10 10 9 9 5 4 3 4 5 8 9 9 8 10 8 8 7 6 5 4 3 3 4 5 7 9 8 9 11 13 14 15 17 18 17 18 17 16 16 19
15 13 12 12 11 11 11 11 11 11 11 12 13 11 8 8 7 6 6 8 9 10 11 11 10 10 10 9 8 8 9 9 9 9 11 11 12 13 12 14 16 17 19 20 22 23 21 21 21
18 18 17 15 16 16 16 16 17 16 15 15 15 16 14 12 11 10 10 10 9 10 11 13 14 13 13 13 13 11 11 13 14 15 14 15 16 15 16 17 18 19 20 20 23 25 28 27 24
17 17 17 18 18 20 21 21 22 21 20 19 18 18 18 15 15 13 12 12 11 11 12 14 15 17 17 16 18 18 18 18 18 19 20 20 20 21 21 22 22 24 24 25 25 27 28 30 31
16 17 17 18 20 22 24 25 24 24 24 23 21 20 21 18 18 18 16 16 15 14 15 15 15 18 18 19 19 20 22 23 24 25 25 26 25 26 26 28 27 28 28 28 31 31 32 33 34
14 13 14 15 17 20 23 24 24 23 23 23 22 22 23 21 20 20 20 19 17 17 17 16 17 17 19 20 19 20 22 23 25 28 30 31 32 33 34 33 33 32 31 31 33 36 38 38 38
13 13 11 12 13 15 16 18 20 22 21 22 23 23 24 23 22 23 22 21 18 18 19 20 20 21 21 21 21 22 22 23 25 27 30 31 32 35 36 38 38 38 40 41 39 38 39 43 44
11 10 11 11 12 13 13 14 15 17 19 21 23 24 23 24 24 24 23 21 20 20 20 23 25 26 26 25 24 25 24 27 25 25 24 26 27 29 31 35 38 40 38 40 44 44 45 45 46
11 11 10 9 9 11 13 14 15 17 17 20 20 21 22 24 23 23 22 21 22 22 24 25 26 28 28 27 27 27 28 28 31 32 33 31 34 34 35 36 38 41 39 39 42 46 46 49 50
13 12 12 11 10 11 13 14 16 17 19 20 20 21 23 23 23 22 24 25 25 25 28 29 30 30 29 30 29 28 29 32 33 33 35 37 39 39 41 43 43 44 48 47 46 46 49 51 52
14 16 15 15 16 15 15 15 16 19 20 20 21 22 23 25 27 29 30 30 29 29 31 33 34 34 32 31 32 32 33 33 32 36 41 43 40 42 46 48 50 49 49 51 53 54 52 54 57
17 18 21 21 21 19 20 21 21 21 22 22 24 27 29 29 30 30 31 32 33 34 35 36 37 36 34 34 34 35 34 36 36 41 42 44 45 46 48 51 55 52 53 55 58 58 58 59 58
20 20 22 24 24 22 20 21 22 22 22 24 25 27 30 33 34 34 35 35 36 36 37 38 37 36 36 36 36 37 39 38 41 43 45 45 45 47 50 54 57 58 58 61 61 63 63 66 68
23 23 25 27 29 27 22 19 26 26 23 24 24 26 31 31 32 34 35 36 36 37 37 38 38 37 38 39 40 41 41 43 44 46 48 49 48 50 54 57 59 61 63 65 68 69 71 72 74
27 25 27 29 30 34 31 15 28 31 27 27 30 31 32 31 31 33 34 36 37 39 41 40 40 42 41 40 41 44 44 46 47 50 52 53 55 58 60 64 63 64 66 68 74 78 78 75 69
31 33 31 33 35 36 38 29 28 30 32 29 32 35 36 34 37 39 38 37 37 38 39 40 43 43 43 43 45 45 47 48 50 53 55 57 60 61 63 66 65 65 70 74 78 81 80 70 59
37 38 37 37 42 40 41 37 30 33 34 30 33 38 38 38 39 41 41 41 41 39 40 41 42 44 47 49 49 49 49 51 52 54 56 57 60 61 65 66 67 71 79 79 80 78 67 59 60
38 41 42 41 44 49 45 44 38 35 35 31 38 37 41 42 40 43 43 41 39 38 39 41 44 45 46 49 49 48 50 52 55 56 56 57 60 63 66 67 70 78 82 82 78 67 57 58 64
41 45 45 46 48 52 51 49 43 41 36 37 33 38 40 40 43 46 46 45 43 43 42 43 46 46 48 49 50 52 53 55 56 57 55 59 62 65 68 73 76 82 82 76 62 54 56 59 64
46 48 49 52 53 53 57 56 49 40 39 36 37 36 40 41 44 46 47 46 47 47 47 47 47 50 50 49 50 52 54 56 57 56 57 60 64 68 73 77 83 84 79 72 64 57 61 63 67
52 49 52 54 57 60 57 62 57 50 42 41 37 36 37 44 46 48 46 47 49 48 48 49 48 49 50 51 51 54 56 56 55 55 57 61 67 73 78 81 83 79 73 69 61 61 67 72 79
54 53 53 55 58 64 60 63 64 60 54 46 40 41 40 45 52 54 52 53 50 49 50 50 49 48 50 51 52 55 57 55 56 56 59 64 72 77 82 83 79 74 72 66 64 71 78 81 87
53 55 56 59 60 68 61 63 70 62 59 49 44 43 45 48 52 58 58 52 51 51 51 50 51 50 49 51 54 57 56 57 56 59 62 68 76 82 83 80 75 68 70 67 71 77 81 86 86
52 53 58 64 64 70 68 70 61 62 59 49 44 49 45 50 56 57 58 50 47 50 50 49 49 50 50 53 56 56 58 57 60 63 66 74 79 84 81 78 71 68 71 70 75 79 82 89 92
56 54 54 60 65 74 74 68 61 59 55 51 48 48 49 48 53 58 60 56 53 54 52 50 48 48 51 54 56 57 59 60 64 68 72 79 83 85 80 78 75 74 78 76 79 83 87 93 99
59 61 59 59 66 73 68 63 65 61 58 53 52 47 46 52 56 59 62 57 53 57 55 51 50 52 55 56 57 59 61 64 66 72 77 83 87 86 82 78 76 75 80 81 82 86 91 98 103
62 62 63 61 65 68 69 71 74 70 63 56 57 51 48 54 57 61 61 56 55 54 51 51 52 55 56 56 58 61 62 67 71 76 82 87 88 87 82 79 76 78 80 82 84 89 98 104 106
58 60 60 61 66 68 70 71 69 61 56 55 57 54 48 55 59 64 60 55 53 51 50 51 54 54 56 57 59 62 65 68 73 79 85 88 88 87 82 79 77 81 82 84 87 96 102 105 109
66 65 65 69 68 69 74 72 56 57 55 53 52 52 54 59 64 64 57 54 51 50 53 55 54 54 57 58 60 63 67 72 77 85 89 88 88 86 82 79 78 81 83 86 90 100 105 108 107

GFSSGP_500_spd_024.txt.gz
Wind_Speed
5 6 7 6 6 5 6 8 8 7 8 8 8 6 5 5 5 4 3 4 3 4 5 2 1 3 3 2 2 3 3 3 4 4 5 6 8 8 8 8 8 10 11 11 9 8 8 10 13
13 12 9 10 10 9 9 10 11 12 11 11 11 10 9 8 7 7 4 3 6 6 6 6 7 8 8 8 6 6 6 7 7 7 8 9 10 11 11 12 12 13 14 16 16 16 16 13 13
18 17 16 15 13 13 13 14 15 16 16 16 15 13 12 11 11 10 9 7 8 9 8 9 10 10 11 11 10 10 10 11 12 12 11 12 13 13 13 13 15 16 16 17 18 19 21 21 21
18 18 17 18 17 16 16 18 19 20 20 20 19 17 17 15 15 14 12 11 9 11 11 11 12 14 14 13 14 15 15 15 15 16 17 17 16 16 17 17 18 20 20 20 21 23 23 25 26
15 17 18 17 17 17 18 20 21 23 24 24 23 22 20 19 18 18 17 15 13 13 14 15 15 15 15 16 16 16 15 17 17 20 22 21 21 21 22 23 23 23 22 23 25 26 27 27 30
12 14 16 17 19 19 21 22 24 25 25 25 24 23 22 22 21 20 20 19 18 17 15 16 15 15 15 17 18 18 16 16 17 18 20 21 23 25 25 26 27 27 28 28 28 29 29 31 32
11 12 12 13 15 16 16 18 20 19 20 20 21 22 22 21 22 22 22 22 22 20 18 17 19 19 18 18 19 20 21 20 18 18 19 20 21 22 22 24 26 29 31 33 33 34 35 35 36
10 10 11 12 12 14 15 15 15 15 16 18 19 19 20 22 23 23 23 23 23 22 21 20 21 22 22 22 23 24 25 26 24 22 20 20 20 22 22 24 25 27 30 31 35 37 38 38 40
10 9 9 10 12 12 13 13 13 14 15 17 18 18 19 20 22 23 23 24 24 24 22 23 24 24 25 26 27 28 28 28 29 28 29 29 28 30 31 31 29 30 31 34 36 36 34 35 40
10 9 10 11 11 10 11 12 13 14 15 18 17 18 19 20 21 21 22 24 24 23 25 26 27 27 27 29 30 31 31 31 31 31 30 31 32 33 34 36 33 32 34 37 38 41 40 42 42
12 12 11 11 13 15 15 16 16 16 17 17 17 17 18 19 20 22 24 26 26 28 29 29 29 29 31 34 34 33 33 33 32 32 32 32 31 34 38 36 36 36 39 41 40 41 42 44 45
16 16 15 15 14 16 19 18 19 19 16 17 17 19 20 21 23 25 26 26 28 29 30 30 31 32 33 35 37 36 34 35 35 35 33 34 34 37 37 40 41 39 40 43 47 49 50 52 50
20 20 21 20 18 18 19 19 21 25 20 21 21 22 22 23 25 26 28 29 31 33 34 34 35 35 36 37 35 35 35 36 36 36 37 37 38 40 41 42 43 41 43 47 49 52 55 58 60
24 24 25 25 25 23 21 21 23 25 25 25 25 26 26 28 28 28 27 27 30 32 34 36 37 38 38 38 37 36 37 38 38 39 39 40 42 43 45 46 47 48 50 50 52 56 61 64 63
28 28 29 29 29 29 27 20 25 28 28 28 27 29 30 31 32 33 31 29 29 30 33 35 37 39 40 39 39 39 39 41 41 42 44 44 45 46 49 50 51 50 50 50 55 61 64 67 64
35 34 32 33 35 33 34 20 28 31 29 31 30 32 33 32 34 36 33 33 34 33 34 35 37 39 39 39 40 41 42 43 45 47 46 47 48 50 52 51 50 51 51 51 55 62 66 68 68
39 39 37 38 39 41 40 29 28 33 31 29 32 34 36 35 39 38 37 37 35 35 36 37 38 39 40 42 43 44 45 48 49 50 50 49 49 50 52 51 50 52 53 56 61 67 70 72 74
42 40 40 41 44 46 44 40 29 34 33 31 32 34 38 41 39 39 40 39 39 39 39 38 38 39 41 43 43 44 47 48 50 50 51 51 52 54 56 53 53 51 54 59 62 68 72 76 79
41 42 43 41 46 52 49 49 39 35 36 32 34 38 38 39 42 41 41 41 42 43 43 42 42 43 42 42 45 47 48 50 51 51 52 53 55 59 58 55 54 55 58 62 67 71 76 80 80
45 45 44 45 49 55 53 52 46 42 36 35 35 37 39 40 42 42 44 43 44 43 44 43 44 45 46 47 47 49 51 52 53 53 54 55 59 59 57 57 57 58 62 67 73 77 79 77 76
47 47 46 52 52 56 60 57 49 42 42 37 35 37 38 39 40 42 46 49 46 45 47 47 48 47 48 49 49 50 52 53 55 55 55 58 61 59 59 59 59 62 66 72 76 80 76 73 70
48 46 51 54 57 60 58 62 51 48 44 40 42 40 36 35 38 43 48 53 50 47 47 49 50 50 51 51 52 53 54 55 55 55 57 59 59 60 60 61 62 66 72 79 81 80 75 69 65
50 51 53 57 59 63 59 64 59 55 51 49 44 49 36 29 32 40 47 50 49 49 50 49 47 47 48 49 50 51 53 52 52 55 58 59 61 62 61 64 66 70 78 81 83 81 77 74 70
51 53 54 58 60 67 59 64 68 59 59 58 50 39 39 37 40 43 47 53 54 51 43 47 49 51 51 49 48 48 49 49 51 56 60 61 62 63 65 68 71 77 84 84 87 83 79 77 73
51 54 57 61 61 66 65 69 66 64 65 55 47 42 40 46 36 41 46 53 56 57 48 44 47 50 51 51 47 46 47 50 54 59 60 62 63 64 68 71 77 83 87 88 87 85 78 74 74
55 55 56 62 64 70 68 69 68 66 59 51 47 43 41 35 34 42 49 55 54 57 49 47 51 51 48 46 46 46 49 53 56 58 60 64 65 67 72 75 81 86 90 86 85 82 76 76 77
59 60 57 60 64 74 71 65 62 65 60 52 39 39 44 43 38 43 50 54 55 62 57 48 50 49 47 47 47 49 53 54 56 59 60 66 68 69 73 78 85 90 88 85 82 83 80 79 78
60 60 63 61 62 66 65 66 73 74 65 40 42 41 48 49 47 45 51 56 61 62 57 51 48 48 51 51 50 53 54 54 58 61 64 67 69 73 77 81 87 89 89 83 82 82 81 80 84
60 63 63 62 65 68 67 69 72 66 53 45 45 42 45 52 48 49 54 60 64 63 59 54 50 52 54 53 53 54 55 57 59 62 66 68 73 79 79 85 88 87 86 84 84 84 84 85 89
70 68 66 66 65 65 72 68 59 51 56 47 46 47 50 55 50 54 61 67 68 67 60 56 54 56 56 54 54 55 57 60 61 63 67 71 75 79 84 87 88 85 85 82 81 83 87 90 92

GFSSGP_500_spd_030.txt.gz
Wind_Speed
15 16 16 16 16 15 17 13 13 11 11 10 11 11 11 10 11 9 7 6 5 4 5 3 3 1 3 0 2 4 5 6 7 7 6 7 8 8 8 7 6 6 5 6 6 8 9 10 10
20 22 22 20 20 19 22 18 18 16 16 15 14 14 15 15 14 13 11 10 9 8 7 7 6 7 7 5 5 4 3 4 6 8 9 9 9 9 9 10 11 11 11 13 12 12 12 11 11
20 20 21 21 19 19 23 22 22 21 20 19 19 19 19 18 18 16 16 13 12 11 10 10 10 10 10 10 9 8 8 6 6 8 8 9 9 10 10 12 12 13 14 14 14 16 16 16 15
15 15 15 16 18 20 19 21 20 22 21 22 22 22 22 20 20 20 18 17 15 14 13 13 14 14 11 10 11 12 11 10 10 11 11 12 13 14 15 16 16 16 16 17 17 17 18 19 19
12 14 14 13 15 16 16 20 20 22 23 23 24 23 22 20 19 19 18 18 19 18 16 16 16 17 16 13 14 14 14 14 15 14 13 14 16 16 17 17 19 20 20 20 19 20 21 21 22
11 12 12 13 15 13 15 17 18 19 19 20 20 19 19 18 17 17 17 18 19 20 20 19 19 19 19 19 17 16 15 16 17 18 18 18 18 17 17 17 16 15 16 18 20 20 22 23 24
13 12 11 12 12 15 16 17 18 18 18 19 18 17 16 15 15 15 16 17 18 20 22 21 21 21 22 22 22 22 21 21 20 20 21 23 23 22 21 19 17 18 18 19 20 21 22 22 22
13 13 12 11 11 11 12 13 16 18 18 17 19 17 16 18 16 15 15 16 17 19 20 22 22 23 24 24 24 25 26 26 25 25 25 26 27 28 28 26 25 25 26 27 26 26 26 25 25
15 13 13 14 13 12 13 14 15 16 17 17 18 19 18 18 17 16 16 16 16 18 19 20 21 22 23 24 25 26 27 27 28 28 28 29 29 31 32 33 35 35 34 34 34 32 31 28 27
18 18 16 16 16 16 16 17 16 19 18 17 17 16 17 18 18 18 18 18 19 19 20 22 22 22 23 26 28 28 29 31 30 31 32 31 32 32 35 35 36 36 37 38 36 35 36 34 32
21 22 20 21 22 21 21 20 19 20 23 18 20 16 19 18 18 18 18 18 18 19 21 22 24 25 25 27 28 29 30 31 32 33 34 35 36 38 37 38 39 39 38 38 37 38 38 37 37
27 28 28 26 27 27 25 25 21 22 26 20 21 22 19 21 20 21 21 23 22 22 21 22 23 25 27 30 31 31 32 33 34 35 36 38 38 39 40 40 39 40 40 40 41 42 41 39 37
33 33 32 33 31 32 31 30 27 26 26 29 24 26 23 24 25 25 24 25 25 26 25 26 25 27 28 28 30 31 33 35 36 38 39 39 40 40 41 41 41 41 41 42 42 45 45 43 43
39 39 38 37 37 38 36 34 32 30 31 30 30 29 29 27 28 29 29 28 29 28 27 30 30 29 30 30 32 33 34 36 37 39 40 41 42 42 43 43 44 43 43 43 43 44 46 46 46
43 42 42 39 42 42 41 38 37 33 35 35 32 32 31 33 31 32 34 33 32 31 29 34 31 32 33 34 34 33 35 36 38 40 42 43 43 44 45 45 45 45 45 46 47 46 46 46 46
43 44 42 40 46 44 43 38 38 41 36 35 36 35 35 34 36 36 38 35 37 34 33 34 36 38 38 36 36 36 36 37 38 40 41 43 44 46 46 46 46 47 47 47 46 47 48 48 49
41 45 45 45 45 49 47 41 34 43 43 38 37 36 38 37 36 38 41 40 38 37 37 38 40 42 41 40 39 39 40 39 39 41 41 44 45 46 45 46 47 48 48 48 48 48 50 51 52
43 48 45 44 44 52 50 44 34 40 46 42 38 39 39 40 41 40 41 41 39 38 41 42 45 45 43 43 44 44 45 46 46 45 44 44 45 46 47 50 50 49 50 50 50 52 53 53 53
47 46 48 41 37 56 54 53 43 37 45 44 41 39 41 43 44 44 40 42 41 42 45 47 47 46 45 46 45 47 49 50 50 50 50 51 51 50 48 49 50 50 51 50 51 53 53 54 53
51 51 49 48 42 51 56 54 47 44 40 42 40 37 39 41 42 44 42 42 44 46 48 48 48 45 45 46 47 48 51 51 51 52 55 54 50 49 49 49 49 49 51 52 51 53 53 55 56
52 55 53 56 48 57 55 60 49 44 44 40 35 36 37 38 41 43 42 45 48 45 44 46 47 47 47 46 48 49 51 53 54 54 52 52 52 54 53 50 50 52 52 51 51 52 53 54 57
57 53 57 57 54 59 58 69 56 46 45 40 36 31 35 38 39 41 47 44 41 41 43 44 45 48 48 48 49 51 52 54 53 52 53 52 53 55 55 55 55 55 53 52 53 55 55 55 56
56 54 53 57 59 63 65 68 65 55 52 46 42 37 39 40 42 38 32 33 37 43 48 49 51 52 51 52 50 49 50 51 52 54 55 57 57 58 56 56 56 56 54 54 56 57 57 58 56
53 56 56 59 63 73 67 64 66 62 58 51 50 46 44 47 43 33 33 36 38 42 46 49 50 49 48 45 43 43 42 46 51 55 58 60 61 59 57 56 57 56 56 58 60 59 60 62 61
55 59 60 63 67 71 67 71 70 67 63 62 57 51 52 34 34 37 31 29 30 35 40 44 47 47 46 42 42 41 39 41 50 55 58 59 58 57 58 58 58 59 60 62 61 60 61 62 64
59 60 63 64 68 72 70 73 69 67 65 64 63 55 40 30 31 35 27 30 35 39 41 45 47 45 44 44 43 44 48 47 48 53 57 57 55 58 60 60 61 63 65 64 62 61 62 63 64
60 65 61 63 68 72 69 69 67 65 67 66 61 51 23 38 24 27 36 40 38 42 44 47 47 46 48 47 49 54 51 50 52 54 55 55 58 60 60 61 63 65 67 66 63 63 64 63 65
68 64 64 67 68 71 70 70 65 64 68 53 29 24 43 33 33 34 38 42 43 45 49 51 51 51 52 53 55 58 48 54 57 58 57 58 60 59 60 61 63 66 67 65 63 63 65 64 67
67 69 69 68 70 74 72 63 62 67 62 61 61 51 49 45 38 42 44 46 54 56 54 54 55 57 57 57 56 53 51 55 58 59 58 57 59 61 62 63 64 66 65 64 65 64 65 67 68
73 69 70 74 72 77 76 67 61 61 64 59 62 59 49 53 53 51 50 53 58 58 57 57 59 60 60 58 52 53 56 59 62 62 62 63 63 63 64 64 64 65 66 67 67 66 67 68 69

GFSSGP_500_spd_033.txt.gz
Wind_Speed
17 19 20 19 19 19 20 17 14 14 14 13 12 12 12 13 12 9 8 7 7 7 6 5 4 5 3 1 2 2 4 4 5 4 5 5 5 5 6 5 5 5 5 5 5 7 8 9 9
19 19 19 19 21 22 24 18 15 16 17 17 17 16 15 16 15 15 11 11 10 8 8 8 7 7 6 6 5 3 2 1 0 1 2 3 4 5 6 7 8 8 9 9 10 10 10 10 10
13 14 14 15 17 20 22 19 16 16 16 18 19 18 18 19 19 17 16 14 14 12 10 10 11 10 8 9 8 7 5 5 6 7 6 6 6 8 8 10 11 12 12 13 12 13 13 12 13
12 12 12 12 13 15 17 16 14 15 15 16 17 18 17 17 18 16 16 16 15 14 13 12 12 13 14 12 11 10 8 10 10 11 11 11 10 11 11 12 14 16 17 17 16 16 16 16 17
13 15 13 13 13 12 15 14 13 14 15 15 15 15 15 13 14 14 14 14 14 14 15 15 15 14 16 17 16 13 12 12 14 13 14 13 14 14 14 15 15 16 16 16 16 16 16 17 18
11 11 13 13 13 9 11 13 12 14 14 15 14 14 15 12 12 12 12 12 13 14 15 16 16 17 17 18 19 17 15 14 15 15 17 17 17 17 17 17 17 15 15 13 15 17 18 20 20
12 12 11 11 11 13 13 14 14 13 12 14 14 13 15 16 14 13 12 11 12 13 14 16 16 17 19 20 20 20 20 20 20 20 20 20 20 21 22 21 20 20 19 18 18 18 20 22 22
13 13 14 13 13 14 13 14 15 17 15 15 15 13 15 14 15 15 14 13 12 13 14 14 15 16 17 19 21 23 22 22 23 24 26 26 24 25 25 26 27 27 25 26 27 27 27 27 26
17 17 17 16 15 14 16 16 17 17 17 16 17 13 14 14 14 14 15 15 15 15 16 17 17 17 17 17 19 21 24 24 24 26 27 27 26 27 26 28 30 30 33 34 35 35 35 34 31
21 21 20 21 20 19 18 19 17 19 20 18 19 16 15 16 16 15 14 14 14 15 16 18 19 20 20 21 22 23 25 27 27 27 27 28 29 29 30 31 32 33 34 35 37 37 37 37 36
25 25 26 25 25 23 22 21 21 19 22 19 21 18 18 16 18 17 17 16 17 17 18 18 18 20 22 24 25 26 27 28 29 30 29 30 30 30 31 33 35 35 35 35 37 38 39 38 37
31 32 31 30 31 31 29 26 24 23 23 22 22 22 21 22 20 20 18 19 20 19 20 20 20 21 22 24 24 26 28 31 32 33 34 34 34 35 35 36 35 37 38 38 38 40 41 40 41
36 34 37 36 35 34 35 33 33 22 26 26 27 24 24 22 23 23 23 22 21 22 23 22 23 24 23 25 25 25 27 29 30 32 34 36 38 38 38 39 39 40 42 41 42 42 42 42 43
40 39 38 38 38 38 40 37 37 23 32 31 31 30 29 27 27 26 28 27 25 25 25 25 24 27 27 27 28 29 30 31 31 32 34 35 38 39 40 41 42 43 44 44 44 44 44 46 46
43 43 42 35 38 45 43 38 34 35 35 33 35 34 32 31 31 30 32 31 30 29 29 28 29 29 30 29 31 33 33 33 32 34 34 35 37 38 40 42 44 45 46 47 47 46 46 47 48
46 47 42 31 41 46 46 38 33 38 41 36 36 37 36 34 33 33 35 35 34 33 33 32 31 32 32 33 35 36 36 35 35 34 35 34 35 37 39 42 43 44 46 47 47 48 49 49 49
40 44 43 39 38 44 47 43 30 36 42 40 39 39 38 36 36 37 38 38 38 38 38 34 34 36 37 38 38 38 39 38 37 37 38 39 40 40 40 40 41 43 45 47 47 47 49 51 50
41 49 45 41 36 45 52 48 37 37 38 40 38 38 38 39 36 41 40 39 41 41 41 37 37 39 40 41 40 40 40 39 38 39 40 40 40 41 42 44 46 46 46 46 47 48 50 50 50
49 52 52 44 39 52 55 57 49 38 39 38 38 39 38 37 36 40 41 41 40 40 38 39 39 43 44 45 43 40 39 39 40 40 41 41 42 44 45 46 44 44 44 44 46 47 49 51 51
53 53 52 51 43 52 58 63 59 47 39 38 39 36 37 36 36 40 41 40 39 41 40 41 43 46 46 45 43 40 39 38 40 43 44 43 43 43 43 43 44 45 46 47 48 48 49 52 53
54 57 55 57 53 57 62 69 64 53 44 39 37 36 35 33 37 40 41 42 43 42 43 45 47 45 44 43 42 38 38 40 44 44 43 43 43 42 42 43 45 47 49 50 51 52 53 54 56
54 49 56 60 61 66 61 72 66 56 50 45 40 39 36 36 41 42 41 43 46 45 47 43 41 41 43 44 42 41 41 39 36 37 39 41 43 45 46 47 49 50 51 52 53 54 54 56 58
51 48 49 52 57 65 68 70 65 59 53 49 43 41 39 36 39 43 46 45 47 42 39 40 43 46 48 47 44 40 36 33 32 34 35 42 46 48 49 51 53 54 55 55 54 54 55 58 61
48 52 55 58 60 68 67 64 62 63 60 55 53 47 42 40 44 41 39 37 36 35 39 44 48 48 45 42 40 38 35 34 33 33 35 43 48 51 52 53 54 55 56 56 57 57 59 60 62
48 48 55 63 65 68 66 69 66 66 65 63 59 51 49 45 40 42 37 31 31 38 40 41 43 43 42 41 40 42 39 37 37 36 39 44 49 51 52 53 54 55 57 58 60 62 62 63 65
59 59 62 64 65 66 68 72 68 69 67 65 62 56 56 54 41 35 30 36 32 34 33 36 40 41 41 43 43 43 43 43 42 44 46 42 48 50 50 52 54 55 56 58 60 62 64 65 66
62 64 61 68 69 72 67 69 67 67 66 64 63 58 46 20 21 27 32 32 36 37 38 41 42 44 45 44 44 44 46 48 49 51 50 45 48 50 53 54 55 56 58 60 61 63 63 63 64
68 66 67 68 73 73 68 69 65 66 63 64 65 53 35 28 25 32 30 37 42 48 47 43 45 43 45 48 49 49 50 54 55 55 50 50 53 55 56 59 60 60 62 64 65 65 64 63 63
65 67 67 69 71 74 75 67 58 62 62 62 60 55 42 49 40 43 44 43 44 49 51 52 52 46 47 49 51 52 55 56 56 56 54 56 59 60 61 63 66 66 67 70 67 64 63 62 62
55 60 61 74 71 75 78 75 50 59 62 62 64 64 59 52 53 54 48 56 60 55 55 56 54 53 52 53 53 53 52 51 52 52 54 60 64 64 66 68 70 72 72 71 68 64 63 61 62